Location: Góry Miechowskie
(50.3599°N, 20.1803°E)
Time: 23:03:06
(UTC+00:00)

Transit 2A Rocket - Pass Details

Date: 14 September 2024
Orbit: 582 x 908 km, 66.7° (Epoch: 09 October)

Event Time Altitude Azimuth Distance (km) Brightness Sun altitude
Exits shadow 00:21:47 37° 319° (NW) 1,384 6.3 -31.6°
Maximum altitude 00:21:56 37° 323° (NW) 1,383 6.4 -31.6°
Drops below altitude 10° 00:27:34 10° 30° (NNE) 2,593 8.6 -31.1°
Sets 00:30:17 0° 38° (NE) 3,517 9.6 -30.9°
